Time,TemperatureF,DewpointF,PressureIn,WindDirection,WindDirectionDegrees,WindSpeedMPH,WindSpeedGustMPH,Humidity,HourlyPrecipIn,Conditions,Clouds,dailyrainin,SoftwareType,DateUTC
2013-10-31 00:00:00,40.3,30.9,29.91,ENE,59,0.0,0.9,69,0.00,,,-99.99,meteobridge,2013-10-31 06:00:00,
2013-10-31 00:05:00,40.3,30.9,29.92,NNE,32,0.0,2.0,69,0.00,,,0.00,meteobridge,2013-10-31 06:05:00,
2013-10-31 00:10:00,40.3,30.9,29.92,NNE,30,0.9,2.0,69,0.00,,,0.00,meteobridge,2013-10-31 06:10:00,
2013-10-31 00:15:00,40.3,30.9,29.92,North,5,0.0,0.9,69,0.00,,,0.00,meteobridge,2013-10-31 06:15:00,
2013-10-31 00:21:00,40.3,30.9,29.92,NNE,32,0.0,0.9,69,0.00,,,0.00,meteobridge,2013-10-31 06:21:00,
2013-10-31 00:26:00,39.9,30.6,29.93,NNE,24,0.0,0.9,69,0.00,,,0.00,meteobridge,2013-10-31 06:26:00,
2013-10-31 00:31:00,39.9,30.6,29.93,NNE,23,0.0,2.0,69,0.00,,,0.00,meteobridge,2013-10-31 06:31:00,
2013-10-31 00:36:00,39.9,30.2,29.93,NNE,23,0.0,0.0,68,0.00,,,0.00,meteobridge,2013-10-31 06:36:00,
2013-10-31 00:41:00,39.7,30.0,29.93,NNE,23,0.0,0.0,68,0.00,,,0.00,meteobridge,2013-10-31 06:41:00,
2013-10-31 00:46:00,39.2,29.8,29.93,NNE,23,0.0,0.0,69,0.00,,,0.00,meteobridge,2013-10-31 06:46:00,
2013-10-31 00:52:00,38.8,29.8,29.93,NNE,23,0.0,0.0,70,0.00,,,0.00,meteobridge,2013-10-31 06:52:00,
2013-10-31 00:57:00,38.3,29.7,29.93,NNE,23,0.0,0.0,71,0.00,,,0.00,meteobridge,2013-10-31 06:57:00,
2013-10-31 01:02:00,38.1,29.8,29.94,NNE,23,0.0,0.0,72,0.00,,,0.00,meteobridge,2013-10-31 07:02:00,
2013-10-31 01:07:00,37.9,29.7,29.94,NNE,23,0.0,0.0,72,0.00,,,0.00,meteobridge,2013-10-31 07:07:00,
2013-10-31 01:13:00,37.6,30.0,29.94,NNE,23,0.0,0.0,74,0.00,,,0.00,meteobridge,2013-10-31 07:13:00,
2013-10-31 01:18:00,37.4,29.5,29.95,NNE,23,0.0,0.0,73,0.00,,,0.00,meteobridge,2013-10-31 07:18:00,
2013-10-31 01:23:00,36.7,29.5,29.96,NNE,23,0.9,0.9,75,0.00,,,0.00,meteobridge,2013-10-31 07:23:00,
2013-10-31 01:28:00,36.9,29.7,29.96,NNE,23,0.0,0.0,75,0.00,,,0.00,meteobridge,2013-10-31 07:28:00,
2013-10-31 01:33:00,36.7,29.8,29.96,NNE,23,0.0,0.0,76,0.00,,,0.00,meteobridge,2013-10-31 07:33:00,
2013-10-31 01:38:00,36.3,29.5,29.96,NNE,23,0.0,0.0,76,0.00,,,0.00,meteobridge,2013-10-31 07:38:00,
2013-10-31 01:43:00,36.3,29.5,29.97,NNE,23,0.0,0.9,76,0.00,,,0.00,meteobridge,2013-10-31 07:43:00,
2013-10-31 01:48:00,36.7,30.2,29.97,SSE,162,0.9,2.9,77,0.00,,,0.00,meteobridge,2013-10-31 07:48:00,
2013-10-31 01:53:00,37.0,29.8,29.97,SSE,161,4.0,4.0,75,0.00,,,0.00,meteobridge,2013-10-31 07:53:00,
2013-10-31 01:58:00,37.2,29.7,29.98,SE,143,0.9,4.0,74,0.00,,,0.00,meteobridge,2013-10-31 07:58:00,
2013-10-31 02:03:00,37.2,29.3,29.97,South,176,2.9,4.9,73,0.00,,,0.00,meteobridge,2013-10-31 08:03:00,
2013-10-31 02:08:00,37.0,29.5,29.98,SE,131,2.9,4.9,74,0.00,,,0.00,meteobridge,2013-10-31 08:08:00,
2013-10-31 02:14:00,36.9,29.3,29.98,SSE,157,2.0,4.9,74,0.00,,,0.00,meteobridge,2013-10-31 08:14:00,
2013-10-31 02:19:00,36.5,28.9,29.98,SE,143,0.9,2.9,74,0.00,,,0.00,meteobridge,2013-10-31 08:19:00,
2013-10-31 02:24:00,36.3,29.1,29.98,SE,144,0.0,0.9,75,0.00,,,0.00,meteobridge,2013-10-31 08:24:00,
2013-10-31 02:29:00,36.1,28.9,29.99,SE,138,2.0,2.9,75,0.00,,,0.00,meteobridge,2013-10-31 08:29:00,
2013-10-31 02:34:00,36.1,28.9,29.99,SE,133,0.0,0.9,75,0.00,,,0.00,meteobridge,2013-10-31 08:34:00,
2013-10-31 02:39:00,36.1,28.9,29.99,SE,133,0.0,0.0,75,0.00,,,0.00,meteobridge,2013-10-31 08:39:00,
2013-10-31 02:44:00,36.1,28.6,29.99,SE,133,0.9,0.9,74,0.00,,,0.00,meteobridge,2013-10-31 08:44:00,
2013-10-31 02:49:00,36.0,29.1,29.99,SE,133,0.0,0.0,76,0.00,,,0.00,meteobridge,2013-10-31 08:49:00,
2013-10-31 02:55:00,36.0,28.8,29.98,SE,133,0.0,0.9,75,0.00,,,0.00,meteobridge,2013-10-31 08:55:00,
2013-10-31 03:00:00,35.8,28.9,29.98,SE,133,0.0,0.0,76,0.00,,,0.00,meteobridge,2013-10-31 09:00:00,
2013-10-31 03:05:00,35.2,28.4,29.99,SE,133,0.0,0.0,76,0.00,,,0.00,meteobridge,2013-10-31 09:05:00,
2013-10-31 03:10:00,35.1,28.6,29.98,SE,133,0.0,0.0,77,0.00,,,0.00,meteobridge,2013-10-31 09:10:00,
2013-10-31 03:16:00,35.2,28.8,29.98,SE,133,0.0,0.9,77,0.00,,,0.00,meteobridge,2013-10-31 09:16:00,
2013-10-31 03:21:00,34.9,28.4,29.99,SE,133,0.0,0.0,77,0.00,,,0.00,meteobridge,2013-10-31 09:21:00,
2013-10-31 03:26:00,34.9,28.8,29.99,SE,133,0.0,0.0,78,0.00,,,0.00,meteobridge,2013-10-31 09:26:00,
2013-10-31 03:32:00,34.7,28.6,29.99,SE,133,0.0,0.0,78,0.00,,,0.00,meteobridge,2013-10-31 09:32:00,
2013-10-31 03:37:00,34.9,28.8,29.99,SE,133,0.0,0.9,78,0.00,,,0.00,meteobridge,2013-10-31 09:37:00,
2013-10-31 03:42:00,35.2,29.1,29.98,SE,133,0.0,0.9,78,0.00,,,0.00,meteobridge,2013-10-31 09:42:00,
2013-10-31 03:47:00,35.2,29.1,29.98,SE,133,0.0,0.9,78,0.00,,,0.00,meteobridge,2013-10-31 09:47:00,
2013-10-31 03:52:00,35.6,29.1,29.98,SE,133,0.0,2.0,77,0.00,,,0.00,meteobridge,2013-10-31 09:52:00,
2013-10-31 03:57:00,35.6,29.1,29.98,SE,133,0.0,0.0,77,0.00,,,0.00,meteobridge,2013-10-31 09:57:00,
2013-10-31 04:02:00,35.2,28.8,29.98,SE,133,0.0,0.0,77,0.00,,,0.00,meteobridge,2013-10-31 10:02:00,
2013-10-31 04:07:00,34.9,29.1,29.98,SE,133,0.0,0.0,79,0.00,,,0.00,meteobridge,2013-10-31 10:07:00,
2013-10-31 04:13:00,34.9,29.1,29.98,SE,133,0.0,0.0,79,0.00,,,0.00,meteobridge,2013-10-31 10:13:00,
2013-10-31 04:18:00,34.7,28.9,29.98,SE,133,0.0,0.0,79,0.00,,,0.00,meteobridge,2013-10-31 10:18:00,
2013-10-31 04:23:00,34.5,28.8,29.98,NNE,19,0.9,2.9,79,0.00,,,0.00,meteobridge,2013-10-31 10:23:00,
2013-10-31 04:28:00,35.6,29.1,29.98,NNE,19,0.0,0.9,77,0.00,,,0.00,meteobridge,2013-10-31 10:28:00,
2013-10-31 04:33:00,36.7,29.5,29.98,NNE,19,0.0,0.9,75,0.00,,,0.00,meteobridge,2013-10-31 10:33:00,
2013-10-31 04:38:00,37.0,29.1,29.98,NNE,20,0.0,0.0,73,0.00,,,0.00,meteobridge,2013-10-31 10:38:00,
2013-10-31 04:43:00,36.9,28.8,29.98,NE,54,0.0,4.9,72,0.00,,,0.00,meteobridge,2013-10-31 10:43:00,
2013-10-31 04:49:00,36.5,28.4,29.99,NE,54,0.0,0.0,72,0.00,,,0.00,meteobridge,2013-10-31 10:49:00,
2013-10-31 04:54:00,36.7,28.6,29.99,NE,52,0.0,0.9,72,0.00,,,0.00,meteobridge,2013-10-31 10:54:00,
2013-10-31 04:59:00,36.3,27.9,29.99,NE,52,0.0,0.0,71,0.00,,,0.00,meteobridge,2013-10-31 10:59:00,
2013-10-31 05:04:00,36.5,28.0,29.98,NE,52,0.0,0.0,71,0.00,,,0.00,meteobridge,2013-10-31 11:04:00,
2013-10-31 05:09:00,36.1,27.7,29.99,West,269,0.0,2.9,71,0.00,,,0.00,meteobridge,2013-10-31 11:09:00,
2013-10-31 05:14:00,36.1,28.0,30.00,WSW,257,0.9,2.0,72,0.00,,,0.00,meteobridge,2013-10-31 11:14:00,
2013-10-31 05:19:00,36.5,28.0,30.01,SSW,209,0.9,2.0,71,0.00,,,0.00,meteobridge,2013-10-31 11:19:00,
2013-10-31 05:24:00,36.7,28.2,30.01,SW,223,0.0,0.0,71,0.00,,,0.00,meteobridge,2013-10-31 11:24:00,
2013-10-31 05:30:00,36.9,28.4,30.02,SSE,165,0.0,2.0,71,0.00,,,0.00,meteobridge,2013-10-31 11:30:00,
2013-10-31 05:35:00,36.5,28.4,30.02,East,100,0.0,2.0,72,0.00,,,0.00,meteobridge,2013-10-31 11:35:00,
2013-10-31 05:40:00,36.1,28.0,30.02,East,100,0.0,0.9,72,0.00,,,0.00,meteobridge,2013-10-31 11:40:00,
2013-10-31 05:45:00,36.0,28.2,30.02,East,100,0.0,0.0,73,0.00,,,0.00,meteobridge,2013-10-31 11:45:00,
2013-10-31 05:50:00,35.8,28.0,30.02,East,100,0.0,0.0,73,0.00,,,0.00,meteobridge,2013-10-31 11:50:00,
2013-10-31 05:55:00,35.4,28.0,30.02,East,100,0.0,0.0,74,0.00,,,0.00,meteobridge,2013-10-31 11:55:00,
2013-10-31 06:00:00,35.1,27.7,30.02,East,100,0.0,0.0,74,0.00,,,0.00,meteobridge,2013-10-31 12:00:00,
2013-10-31 06:05:00,34.3,27.5,30.03,East,100,0.0,0.9,76,0.00,,,0.00,meteobridge,2013-10-31 12:05:00,
2013-10-31 06:10:00,33.8,27.3,30.04,East,100,0.9,0.9,77,0.00,,,0.00,meteobridge,2013-10-31 12:10:00,
2013-10-31 06:16:00,34.0,27.9,30.04,South,173,0.9,0.9,78,0.00,,,0.00,meteobridge,2013-10-31 12:16:00,
2013-10-31 06:21:00,34.3,27.9,30.05,SSE,150,0.9,2.0,77,0.00,,,0.00,meteobridge,2013-10-31 12:21:00,
2013-10-31 06:26:00,34.3,27.5,30.05,SSE,152,2.0,2.9,76,0.00,,,0.00,meteobridge,2013-10-31 12:26:00,
2013-10-31 06:31:00,34.2,27.1,30.05,SE,130,0.0,2.0,75,0.00,,,0.00,meteobridge,2013-10-31 12:31:00,
2013-10-31 06:36:00,34.0,27.0,30.06,SE,130,0.0,0.9,75,0.00,,,0.00,meteobridge,2013-10-31 12:36:00,
2013-10-31 06:41:00,34.0,26.6,30.06,SE,130,0.0,0.0,74,0.00,,,0.00,meteobridge,2013-10-31 12:41:00,
2013-10-31 06:46:00,33.4,26.8,30.06,South,178,2.9,2.9,76,0.00,,,0.00,meteobridge,2013-10-31 12:46:00,
2013-10-31 06:51:00,33.6,26.6,30.06,SSE,161,0.0,2.0,75,0.00,,,0.00,meteobridge,2013-10-31 12:51:00,
2013-10-31 06:56:00,34.0,27.0,30.07,SE,125,0.0,0.9,75,0.00,,,0.00,meteobridge,2013-10-31 12:56:00,
2013-10-31 07:01:00,33.8,26.8,30.06,SE,125,0.0,0.9,75,0.00,,,0.00,meteobridge,2013-10-31 13:01:00,
2013-10-31 07:06:00,33.6,26.6,30.07,SE,125,0.0,0.0,75,0.00,,,0.00,meteobridge,2013-10-31 13:06:00,
2013-10-31 07:11:00,33.4,26.4,30.07,SE,125,0.0,0.0,75,0.00,,,0.00,meteobridge,2013-10-31 13:11:00,
2013-10-31 07:16:00,33.3,26.6,30.07,SE,125,0.9,0.9,76,0.00,,,0.00,meteobridge,2013-10-31 13:16:00,
2013-10-31 07:22:00,33.3,26.6,30.07,SE,125,0.0,0.9,76,0.00,,,0.00,meteobridge,2013-10-31 13:22:00,
2013-10-31 07:27:00,33.3,26.6,30.08,ESE,123,0.0,2.0,76,0.00,,,0.00,meteobridge,2013-10-31 13:27:00,
2013-10-31 07:32:00,32.9,26.2,30.09,ESE,123,0.0,0.9,76,0.00,,,0.00,meteobridge,2013-10-31 13:32:00,
2013-10-31 07:37:00,32.9,26.4,30.09,ESE,123,0.0,0.9,77,0.00,,,0.00,meteobridge,2013-10-31 13:37:00,
2013-10-31 07:42:00,32.7,26.2,30.09,ESE,123,0.0,0.0,77,0.00,,,0.00,meteobridge,2013-10-31 13:42:00,
2013-10-31 07:47:00,32.7,26.6,30.09,ESE,123,0.0,0.0,78,0.00,,,0.00,meteobridge,2013-10-31 13:47:00,
2013-10-31 07:52:00,32.7,26.6,30.09,ESE,123,0.0,0.0,78,0.00,,,0.00,meteobridge,2013-10-31 13:52:00,
2013-10-31 07:57:00,32.9,26.8,30.09,ESE,123,0.0,0.9,78,0.00,,,0.00,meteobridge,2013-10-31 13:57:00,
2013-10-31 08:03:00,33.3,27.1,30.10,ESE,123,0.0,0.9,78,0.00,,,0.00,meteobridge,2013-10-31 14:03:00,
2013-10-31 08:08:00,34.2,27.7,30.10,ESE,123,0.0,0.0,77,0.00,,,0.00,meteobridge,2013-10-31 14:08:00,
2013-10-31 08:13:00,34.7,27.7,30.10,ESE,123,0.0,0.0,75,0.00,,,0.00,meteobridge,2013-10-31 14:13:00,
2013-10-31 08:18:00,35.4,27.7,30.10,ESE,123,0.9,0.9,73,0.00,,,0.00,meteobridge,2013-10-31 14:18:00,
2013-10-31 08:23:00,36.1,27.7,30.11,ESE,123,0.0,0.9,71,0.00,,,0.00,meteobridge,2013-10-31 14:23:00,
2013-10-31 08:29:00,37.0,28.2,30.11,ESE,123,0.0,0.0,70,0.00,,,0.00,meteobridge,2013-10-31 14:29:00,
2013-10-31 08:34:00,37.9,28.0,30.11,ESE,123,0.0,0.9,67,0.00,,,0.00,meteobridge,2013-10-31 14:34:00,
2013-10-31 08:39:00,38.5,27.7,30.11,ESE,123,0.9,0.9,65,0.00,,,0.00,meteobridge,2013-10-31 14:39:00,
2013-10-31 08:44:00,39.0,27.9,30.11,ESE,121,0.0,0.0,64,0.00,,,0.00,meteobridge,2013-10-31 14:44:00,
2013-10-31 08:49:00,39.2,28.0,30.11,ESE,120,0.9,2.0,64,0.00,,,0.00,meteobridge,2013-10-31 14:49:00,
2013-10-31 08:54:00,39.6,28.0,30.11,ESE,120,0.9,4.0,63,0.00,,,0.00,meteobridge,2013-10-31 14:54:00,
2013-10-31 08:59:00,39.7,27.9,30.11,SE,126,0.9,2.0,62,0.00,,,0.00,meteobridge,2013-10-31 14:59:00,
2013-10-31 09:04:00,40.1,28.0,30.11,SE,126,0.0,0.9,62,0.00,,,0.00,meteobridge,2013-10-31 15:04:00,
2013-10-31 09:10:00,41.2,28.4,30.11,SE,125,0.9,0.9,60,0.00,,,0.00,meteobridge,2013-10-31 15:10:00,
2013-10-31 09:15:00,41.7,28.0,30.11,ESE,123,0.0,2.9,58,0.00,,,0.00,meteobridge,2013-10-31 15:15:00,
2013-10-31 09:20:00,42.3,28.6,30.11,ESE,122,0.9,2.0,58,0.00,,,0.00,meteobridge,2013-10-31 15:20:00,
2013-10-31 09:25:00,43.0,28.4,30.11,ESE,121,2.0,2.0,56,0.00,,,0.00,meteobridge,2013-10-31 15:25:00,
2013-10-31 09:30:00,43.9,28.4,30.12,ENE,58,0.9,2.9,54,0.00,,,0.00,meteobridge,2013-10-31 15:30:00,
2013-10-31 09:35:00,44.4,28.4,30.11,ENE,58,0.0,2.0,53,0.00,,,0.00,meteobridge,2013-10-31 15:35:00,
2013-10-31 09:40:00,45.1,28.6,30.11,North,9,2.9,2.9,52,0.00,,,0.00,meteobridge,2013-10-31 15:40:00,
2013-10-31 09:45:00,45.1,28.6,30.11,NNW,347,2.0,4.0,52,0.00,,,0.00,meteobridge,2013-10-31 15:45:00,
2013-10-31 09:50:00,45.1,27.7,30.11,North,355,2.0,4.9,50,0.00,,,0.00,meteobridge,2013-10-31 15:50:00,
2013-10-31 09:55:00,45.3,27.9,30.11,NW,317,0.0,2.9,50,0.00,,,0.00,meteobridge,2013-10-31 15:55:00,
2013-10-31 10:00:00,46.2,28.6,30.11,North,350,2.0,4.0,50,0.00,,,0.00,meteobridge,2013-10-31 16:00:00,
2013-10-31 10:05:00,46.4,27.9,30.11,NNW,331,2.0,4.9,48,0.00,,,0.00,meteobridge,2013-10-31 16:05:00,
2013-10-31 10:10:00,46.8,28.0,30.11,West,268,0.9,4.0,48,0.00,,,0.00,meteobridge,2013-10-31 16:10:00,
2013-10-31 10:15:00,47.1,28.4,30.11,NW,321,2.9,2.9,48,0.00,,,0.00,meteobridge,2013-10-31 16:15:00,
2013-10-31 10:20:00,47.5,28.2,30.11,NNW,348,0.9,6.9,47,0.00,,,0.00,meteobridge,2013-10-31 16:20:00,
2013-10-31 10:25:00,48.0,28.2,30.11,WSW,244,0.9,2.9,46,0.00,,,0.00,meteobridge,2013-10-31 16:25:00,
2013-10-31 10:30:00,47.8,28.0,30.11,SW,214,0.9,2.9,46,0.00,,,0.00,meteobridge,2013-10-31 16:30:00,
2013-10-31 10:35:00,47.8,28.6,30.11,West,278,0.0,2.0,47,0.00,,,0.00,meteobridge,2013-10-31 16:35:00,
2013-10-31 10:40:00,48.0,28.2,30.11,North,349,2.0,4.0,46,0.00,,,0.00,meteobridge,2013-10-31 16:40:00,
2013-10-31 10:45:00,48.0,28.8,30.11,NW,313,2.0,4.0,47,0.00,,,0.00,meteobridge,2013-10-31 16:45:00,
2013-10-31 10:50:00,48.4,28.6,30.11,North,355,2.0,4.0,46,0.00,,,0.00,meteobridge,2013-10-31 16:50:00,
2013-10-31 10:56:00,48.7,28.4,30.11,West,275,0.0,4.9,45,0.00,,,0.00,meteobridge,2013-10-31 16:56:00,
2013-10-31 11:01:00,48.2,28.9,30.11,NNW,332,2.0,4.9,47,0.00,,,0.00,meteobridge,2013-10-31 17:01:00,
2013-10-31 11:06:00,48.6,28.2,30.11,North,9,4.9,6.9,45,0.00,,,0.00,meteobridge,2013-10-31 17:06:00,
2013-10-31 11:11:00,48.4,28.6,30.11,North,350,4.9,6.0,46,0.00,,,0.00,meteobridge,2013-10-31 17:11:00,
2013-10-31 11:16:00,48.2,28.4,30.11,North,355,4.0,4.0,46,0.00,,,0.00,meteobridge,2013-10-31 17:16:00,
2013-10-31 11:21:00,49.1,29.1,30.10,NW,319,2.0,2.9,46,0.00,,,0.00,meteobridge,2013-10-31 17:21:00,
2013-10-31 11:26:00,49.8,28.8,30.10,NNW,331,2.9,2.9,44,0.00,,,0.00,meteobridge,2013-10-31 17:26:00,
2013-10-31 11:31:00,50.5,28.9,30.10,North,0,2.0,4.9,43,0.00,,,0.00,meteobridge,2013-10-31 17:31:00,
2013-10-31 11:36:00,51.4,26.1,30.10,WNW,293,0.9,6.9,37,0.00,,,0.00,meteobridge,2013-10-31 17:36:00,
2013-10-31 11:41:00,51.4,26.1,30.09,North,5,13.0,13.0,37,0.00,,,0.00,meteobridge,2013-10-31 17:41:00,
2013-10-31 11:46:00,51.4,26.1,30.09,ENE,59,4.0,4.0,37,0.00,,,0.00,meteobridge,2013-10-31 17:46:00,
2013-10-31 11:51:00,51.4,25.3,30.09,North,10,4.9,8.1,36,0.00,,,0.00,meteobridge,2013-10-31 17:51:00,
2013-10-31 11:56:00,51.4,24.6,30.09,WNW,303,2.0,8.9,35,0.00,,,0.00,meteobridge,2013-10-31 17:56:00,
2013-10-31 12:01:00,52.0,25.2,30.09,NW,322,2.0,6.9,35,0.00,,,0.00,meteobridge,2013-10-31 18:01:00,
2013-10-31 12:06:00,52.2,25.3,30.09,North,0,2.0,8.1,35,0.00,,,0.00,meteobridge,2013-10-31 18:06:00,
2013-10-31 12:11:00,52.3,24.8,30.09,NW,308,4.0,13.0,34,0.00,,,0.00,meteobridge,2013-10-31 18:11:00,
2013-10-31 12:16:00,52.2,24.6,30.09,NW,321,2.0,4.9,34,0.00,,,0.00,meteobridge,2013-10-31 18:16:00,
2013-10-31 12:21:00,52.3,25.5,30.08,NW,307,2.9,8.1,35,0.00,,,0.00,meteobridge,2013-10-31 18:21:00,
2013-10-31 12:26:00,52.9,25.3,30.08,NNW,340,4.9,8.1,34,0.00,,,0.00,meteobridge,2013-10-31 18:26:00,
2013-10-31 12:31:00,52.7,25.2,30.07,North,11,2.9,8.9,34,0.00,,,0.00,meteobridge,2013-10-31 18:31:00,
2013-10-31 12:36:00,52.9,25.3,30.07,NW,314,4.0,4.9,34,0.00,,,0.00,meteobridge,2013-10-31 18:36:00,
2013-10-31 12:41:00,53.4,25.7,30.07,NNW,346,8.1,8.1,34,0.00,,,0.00,meteobridge,2013-10-31 18:41:00,
2013-10-31 12:46:00,53.8,25.3,30.06,NNW,346,6.0,13.0,33,0.00,,,0.00,meteobridge,2013-10-31 18:46:00,
2013-10-31 12:51:00,54.1,26.4,30.06,WNW,296,2.0,6.0,34,0.00,,,0.00,meteobridge,2013-10-31 18:51:00,
2013-10-31 12:56:00,54.1,25.7,30.06,NNW,332,2.0,8.9,33,0.00,,,0.00,meteobridge,2013-10-31 18:56:00,
2013-10-31 13:01:00,54.0,25.5,30.06,NW,313,2.0,6.0,33,0.00,,,0.00,meteobridge,2013-10-31 19:01:00,
2013-10-31 13:06:00,54.0,26.2,30.05,NNW,331,2.0,4.0,34,0.00,,,0.00,meteobridge,2013-10-31 19:06:00,
2013-10-31 13:11:00,54.7,25.3,30.05,NNW,345,2.0,6.9,32,0.00,,,0.00,meteobridge,2013-10-31 19:11:00,
2013-10-31 13:16:00,55.0,25.7,30.05,NW,323,2.9,2.9,32,0.00,,,0.00,meteobridge,2013-10-31 19:16:00,
2013-10-31 13:21:00,55.6,25.3,30.05,NNW,347,2.9,4.9,31,0.00,,,0.00,meteobridge,2013-10-31 19:21:00,
2013-10-31 13:26:00,55.6,25.3,30.04,NW,313,2.0,4.0,31,0.00,,,0.00,meteobridge,2013-10-31 19:26:00,
2013-10-31 13:31:00,55.0,25.0,30.04,NNW,339,6.0,6.0,31,0.00,,,0.00,meteobridge,2013-10-31 19:31:00,
2013-10-31 13:36:00,55.2,25.9,30.03,NW,304,0.9,8.1,32,0.00,,,0.00,meteobridge,2013-10-31 19:36:00,
2013-10-31 13:41:00,55.2,25.2,30.03,WNW,299,4.0,6.0,31,0.00,,,0.00,meteobridge,2013-10-31 19:41:00,
2013-10-31 13:46:00,55.2,25.2,30.03,North,0,8.1,15.0,31,0.00,,,0.00,meteobridge,2013-10-31 19:46:00,
2013-10-31 13:51:00,55.6,24.6,30.03,NW,324,2.0,6.0,30,0.00,,,0.00,meteobridge,2013-10-31 19:51:00,
2013-10-31 13:53:00,55.4,24.4,30.03,WNW,302,4.0,6.9,30,0.00,,,0.00,meteobridge,2013-10-31 19:53:00,
2013-10-31 13:58:00,55.6,24.6,30.02,NW,325,4.9,8.9,30,0.00,,,0.00,meteobridge,2013-10-31 19:58:00,
2013-10-31 14:03:00,55.2,24.3,30.02,WNW,292,2.9,8.1,30,0.00,,,0.00,meteobridge,2013-10-31 20:03:00,
2013-10-31 14:08:00,55.0,25.0,30.02,WSW,238,4.0,6.9,31,0.00,,,0.00,meteobridge,2013-10-31 20:08:00,
2013-10-31 14:13:00,55.6,24.6,30.02,NW,304,0.9,4.0,30,0.00,,,0.00,meteobridge,2013-10-31 20:13:00,
2013-10-31 14:18:00,55.6,24.6,30.01,WNW,297,4.0,6.9,30,0.00,,,0.00,meteobridge,2013-10-31 20:18:00,
2013-10-31 14:23:00,55.8,25.5,30.01,NNW,329,6.9,6.9,31,0.00,,,0.00,meteobridge,2013-10-31 20:23:00,
2013-10-31 14:28:00,55.9,25.0,30.01,NNW,348,2.9,8.9,30,0.00,,,0.00,meteobridge,2013-10-31 20:28:00,
2013-10-31 14:33:00,56.8,25.7,30.01,West,278,2.0,8.9,30,0.00,,,0.00,meteobridge,2013-10-31 20:33:00,
2013-10-31 14:38:00,56.5,25.3,30.01,North,5,2.9,6.9,30,0.00,,,0.00,meteobridge,2013-10-31 20:38:00,
2013-10-31 14:43:00,56.5,25.3,30.01,NNE,19,4.9,16.1,30,0.00,,,0.00,meteobridge,2013-10-31 20:43:00,
2013-10-31 14:48:00,56.5,26.2,30.01,NW,314,8.1,13.0,31,0.00,,,0.00,meteobridge,2013-10-31 20:48:00,
2013-10-31 14:53:00,56.7,25.5,30.01,North,11,12.1,15.0,30,0.00,,,0.00,meteobridge,2013-10-31 20:53:00,
2013-10-31 14:58:00,56.7,25.5,30.01,NW,309,2.9,8.1,30,0.00,,,0.00,meteobridge,2013-10-31 20:58:00,
2013-10-31 15:03:00,55.8,24.8,30.01,North,350,2.9,10.1,30,0.00,,,0.00,meteobridge,2013-10-31 21:03:00,
2013-10-31 15:08:00,56.1,25.2,30.00,NNW,345,6.0,8.1,30,0.00,,,0.00,meteobridge,2013-10-31 21:08:00,
2013-10-31 15:13:00,56.3,25.3,30.00,NW,315,6.0,12.1,30,0.00,,,0.00,meteobridge,2013-10-31 21:13:00,
2013-10-31 15:18:00,56.1,25.2,30.00,NE,34,2.0,6.9,30,0.00,,,0.00,meteobridge,2013-10-31 21:18:00,
2013-10-31 15:23:00,56.5,24.6,30.00,NNW,331,4.9,6.0,29,0.00,,,0.00,meteobridge,2013-10-31 21:23:00,
2013-10-31 15:28:00,56.3,25.3,30.00,WNW,301,0.9,6.0,30,0.00,,,0.00,meteobridge,2013-10-31 21:28:00,
2013-10-31 15:33:00,56.7,24.8,30.00,North,0,6.9,8.9,29,0.00,,,0.00,meteobridge,2013-10-31 21:33:00,
2013-10-31 15:38:00,56.7,24.8,30.00,NNW,327,2.9,6.9,29,0.00,,,0.00,meteobridge,2013-10-31 21:38:00,
2013-10-31 15:43:00,56.5,24.6,30.00,NNW,331,6.0,6.0,29,0.00,,,0.00,meteobridge,2013-10-31 21:43:00,
2013-10-31 15:48:00,55.9,23.4,30.00,NNE,13,13.0,13.0,28,0.00,,,0.00,meteobridge,2013-10-31 21:48:00,
2013-10-31 15:54:00,55.9,24.1,30.00,NNE,15,2.0,11.0,29,0.00,,,0.00,meteobridge,2013-10-31 21:54:00,
2013-10-31 15:59:00,55.8,23.9,30.00,North,355,4.0,11.0,29,0.00,,,0.00,meteobridge,2013-10-31 21:59:00,
2013-10-31 16:04:00,55.9,24.1,30.00,NE,46,4.9,16.1,29,0.00,,,0.00,meteobridge,2013-10-31 22:04:00,
2013-10-31 16:09:00,55.9,23.4,30.00,North,349,4.0,14.1,28,0.00,,,0.00,meteobridge,2013-10-31 22:09:00,
2013-10-31 16:14:00,55.9,23.4,30.00,NNW,344,8.9,13.0,28,0.00,,,0.00,meteobridge,2013-10-31 22:14:00,
2013-10-31 16:19:00,55.4,23.7,30.00,NNW,336,4.0,8.9,29,0.00,,,0.00,meteobridge,2013-10-31 22:19:00,
2013-10-31 16:24:00,55.4,23.7,30.00,NNE,16,8.9,14.1,29,0.00,,,0.00,meteobridge,2013-10-31 22:24:00,
2013-10-31 16:29:00,55.8,23.2,30.00,NNW,327,4.9,12.1,28,0.00,,,0.00,meteobridge,2013-10-31 22:29:00,
2013-10-31 16:34:00,55.2,23.5,30.00,NNW,332,2.9,6.9,29,0.00,,,0.00,meteobridge,2013-10-31 22:34:00,
2013-10-31 16:39:00,55.2,23.5,30.00,North,355,6.0,13.0,29,0.00,,,0.00,meteobridge,2013-10-31 22:39:00,
2013-10-31 16:44:00,55.2,24.3,29.99,NW,306,4.0,6.9,30,0.00,,,0.00,meteobridge,2013-10-31 22:44:00,
2013-10-31 16:49:00,55.4,23.7,29.99,NNW,347,4.0,6.9,29,0.00,,,0.00,meteobridge,2013-10-31 22:49:00,
2013-10-31 16:54:00,55.6,23.9,29.99,North,355,8.1,8.1,29,0.00,,,0.00,meteobridge,2013-10-31 22:54:00,
2013-10-31 16:59:00,55.2,24.3,29.99,WNW,300,2.0,4.0,30,0.00,,,0.00,meteobridge,2013-10-31 22:59:00,
2013-10-31 17:04:00,55.0,23.4,29.99,NW,308,6.0,8.9,29,0.00,,,0.00,meteobridge,2013-10-31 23:04:00,
2013-10-31 17:09:00,54.5,22.8,29.99,NW,325,6.0,10.1,29,0.00,,,0.00,meteobridge,2013-10-31 23:09:00,
2013-10-31 17:14:00,54.5,23.7,29.99,North,355,4.0,11.0,30,0.00,,,0.00,meteobridge,2013-10-31 23:14:00,
2013-10-31 17:19:00,54.5,23.7,29.99,NW,307,2.9,11.0,30,0.00,,,0.00,meteobridge,2013-10-31 23:19:00,
2013-10-31 17:24:00,54.1,23.4,29.99,NNW,338,4.9,16.1,30,0.00,,,0.00,meteobridge,2013-10-31 23:24:00,
2013-10-31 17:29:00,54.0,23.2,29.99,NW,323,10.1,10.1,30,0.00,,,0.00,meteobridge,2013-10-31 23:29:00,
2013-10-31 17:34:00,53.8,23.0,29.99,WNW,297,4.0,8.1,30,0.00,,,0.00,meteobridge,2013-10-31 23:34:00,
2013-10-31 17:39:00,53.6,22.8,29.99,WNW,294,2.0,6.0,30,0.00,,,0.00,meteobridge,2013-10-31 23:39:00,
2013-10-31 17:44:00,53.2,23.4,29.98,NW,323,6.0,11.0,31,0.00,,,0.00,meteobridge,2013-10-31 23:44:00,
2013-10-31 17:49:00,53.1,23.2,29.98,WNW,303,4.0,8.9,31,0.00,,,0.00,meteobridge,2013-10-31 23:49:00,
2013-10-31 17:54:00,52.7,22.8,29.98,NNW,331,6.9,17.9,31,0.00,,,0.00,meteobridge,2013-10-31 23:54:00,
2013-10-31 17:59:00,52.5,23.5,29.99,WNW,295,4.9,11.0,32,0.00,,,0.00,meteobridge,2013-10-31 23:59:00,
2013-10-31 18:04:00,52.3,23.4,29.99,NW,325,4.0,13.0,32,0.00,,,0.00,meteobridge,2013-11-01 00:04:00,
2013-10-31 18:09:00,52.2,23.2,29.99,WSW,257,4.0,10.1,32,0.00,,,0.00,meteobridge,2013-11-01 00:09:00,
2013-10-31 18:14:00,52.0,23.7,29.98,NNW,332,4.9,8.1,33,0.00,,,0.00,meteobridge,2013-11-01 00:14:00,
2013-10-31 18:19:00,51.6,23.4,29.98,NW,315,2.0,11.0,33,0.00,,,0.00,meteobridge,2013-11-01 00:19:00,
2013-10-31 18:24:00,51.4,23.4,29.98,NNW,328,6.0,15.0,33,0.00,,,0.00,meteobridge,2013-11-01 00:24:00,
2013-10-31 18:29:00,51.4,23.4,29.99,North,355,2.9,12.1,33,0.00,,,0.00,meteobridge,2013-11-01 00:29:00,
2013-10-31 18:34:00,51.3,23.9,29.99,NNW,340,8.1,11.0,34,0.00,,,0.00,meteobridge,2013-11-01 00:34:00,
2013-10-31 18:39:00,51.1,23.7,29.99,North,355,4.9,10.1,34,0.00,,,0.00,meteobridge,2013-11-01 00:39:00,
2013-10-31 18:44:00,50.9,24.3,29.99,NNW,330,4.0,10.1,35,0.00,,,0.00,meteobridge,2013-11-01 00:44:00,
2013-10-31 18:49:00,50.5,23.9,30.00,NNE,28,10.1,12.1,35,0.00,,,0.00,meteobridge,2013-11-01 00:49:00,
2013-10-31 18:54:00,50.5,23.9,30.00,North,355,4.9,12.1,35,0.00,,,0.00,meteobridge,2013-11-01 00:54:00,
2013-10-31 18:59:00,50.4,24.4,30.00,North,5,4.0,10.1,36,0.00,,,0.00,meteobridge,2013-11-01 00:59:00,
2013-10-31 19:04:00,50.2,24.3,30.00,WNW,294,4.9,14.1,36,0.00,,,0.00,meteobridge,2013-11-01 01:04:00,
2013-10-31 19:09:00,50.2,25.0,30.00,NNW,330,4.0,16.1,37,0.00,,,0.00,meteobridge,2013-11-01 01:09:00,
2013-10-31 19:14:00,50.0,24.8,30.01,NNW,328,4.0,15.0,37,0.00,,,0.00,meteobridge,2013-11-01 01:14:00,
2013-10-31 19:19:00,49.8,24.6,30.01,NNW,332,8.9,12.1,37,0.00,,,0.00,meteobridge,2013-11-01 01:19:00,
2013-10-31 19:24:00,49.8,25.2,30.01,North,355,10.1,17.9,38,0.00,,,0.00,meteobridge,2013-11-01 01:24:00,
2013-10-31 19:29:00,49.6,25.0,30.01,NNW,346,4.0,16.1,38,0.00,,,0.00,meteobridge,2013-11-01 01:29:00,
2013-10-31 19:35:00,49.6,25.7,30.01,NNW,344,10.1,13.0,39,0.00,,,0.00,meteobridge,2013-11-01 01:35:00,
2013-10-31 19:40:00,49.5,25.5,30.01,North,11,8.1,11.0,39,0.00,,,0.00,meteobridge,2013-11-01 01:40:00,
2013-10-31 19:45:00,49.5,26.1,30.01,North,10,4.0,15.0,40,0.00,,,0.00,meteobridge,2013-11-01 01:45:00,
2013-10-31 19:50:00,49.3,26.1,30.01,North,355,4.9,10.1,40,0.00,,,0.00,meteobridge,2013-11-01 01:50:00,
2013-10-31 19:55:00,49.1,26.4,30.01,WNW,299,6.0,11.0,41,0.00,,,0.00,meteobridge,2013-11-01 01:55:00,
2013-10-31 20:00:00,48.9,26.2,30.01,NNW,333,4.0,10.1,41,0.00,,,0.00,meteobridge,2013-11-01 02:00:00,
2013-10-31 20:05:00,48.7,26.1,30.01,North,5,6.0,10.1,41,0.00,,,0.00,meteobridge,2013-11-01 02:05:00,
2013-10-31 20:10:00,48.7,26.6,30.01,North,350,4.0,8.1,42,0.00,,,0.00,meteobridge,2013-11-01 02:10:00,
2013-10-31 20:15:00,48.6,26.4,30.01,North,5,4.9,6.9,42,0.00,,,0.00,meteobridge,2013-11-01 02:15:00,
2013-10-31 20:20:00,48.4,26.4,30.01,North,5,2.9,6.9,42,0.00,,,0.00,meteobridge,2013-11-01 02:20:00,
2013-10-31 20:25:00,48.4,27.0,30.02,NW,321,4.9,6.9,43,0.00,,,0.00,meteobridge,2013-11-01 02:25:00,
2013-10-31 20:30:00,48.2,26.8,30.02,North,9,2.9,6.0,43,0.00,,,0.00,meteobridge,2013-11-01 02:30:00,
2013-10-31 20:35:00,48.0,27.1,30.02,NNW,345,4.9,6.9,44,0.00,,,0.00,meteobridge,2013-11-01 02:35:00,
2013-10-31 20:40:00,48.0,27.1,30.02,NNW,345,2.9,4.9,44,0.00,,,0.00,meteobridge,2013-11-01 02:40:00,
2013-10-31 20:45:00,48.0,27.1,30.01,NW,316,2.9,6.0,44,0.00,,,0.00,meteobridge,2013-11-01 02:45:00,
2013-10-31 20:50:00,48.0,27.1,30.01,NNW,327,2.0,4.0,44,0.00,,,0.00,meteobridge,2013-11-01 02:50:00,
2013-10-31 20:55:00,47.8,27.0,30.01,NW,317,2.0,4.9,44,0.00,,,0.00,meteobridge,2013-11-01 02:55:00,
2013-10-31 21:00:00,47.8,27.0,30.02,NNW,343,4.0,4.0,44,0.00,,,0.00,meteobridge,2013-11-01 03:00:00,
2013-10-31 21:05:00,47.7,27.3,30.02,NW,320,2.9,4.0,45,0.00,,,0.00,meteobridge,2013-11-01 03:05:00,
2013-10-31 21:10:00,47.5,27.1,30.02,NNW,330,2.0,8.9,45,0.00,,,0.00,meteobridge,2013-11-01 03:10:00,
2013-10-31 21:15:00,47.3,27.0,30.02,NW,322,2.0,11.0,45,0.00,,,0.00,meteobridge,2013-11-01 03:15:00,
2013-10-31 21:20:00,47.1,26.8,30.03,North,350,6.9,13.0,45,0.00,,,0.00,meteobridge,2013-11-01 03:20:00,
2013-10-31 21:25:00,47.1,26.8,30.03,NNW,338,2.0,8.9,45,0.00,,,0.00,meteobridge,2013-11-01 03:25:00,
2013-10-31 21:30:00,46.9,27.3,30.04,NNW,336,2.9,10.1,46,0.00,,,0.00,meteobridge,2013-11-01 03:30:00,
2013-10-31 21:35:00,46.8,27.1,30.04,NNW,348,2.9,8.1,46,0.00,,,0.00,meteobridge,2013-11-01 03:35:00,
2013-10-31 21:40:00,46.8,27.1,30.04,NNW,348,4.9,6.9,46,0.00,,,0.00,meteobridge,2013-11-01 03:40:00,
2013-10-31 21:45:00,46.6,27.0,30.05,NNE,29,4.9,6.9,46,0.00,,,0.00,meteobridge,2013-11-01 03:45:00,
2013-10-31 21:50:00,46.4,26.8,30.05,NNW,335,4.9,11.0,46,0.00,,,0.00,meteobridge,2013-11-01 03:50:00,
2013-10-31 21:55:00,46.2,26.6,30.05,North,0,4.9,8.9,46,0.00,,,0.00,meteobridge,2013-11-01 03:55:00,
2013-10-31 22:00:00,46.2,26.6,30.06,NNW,334,4.9,6.0,46,0.00,,,0.00,meteobridge,2013-11-01 04:00:00,
2013-10-31 22:01:00,46.2,26.6,30.06,North,350,6.0,6.0,46,0.00,,,0.00,meteobridge,2013-11-01 04:01:00,
2013-10-31 22:02:00,46.2,26.6,30.05,North,350,6.0,10.1,46,0.00,,,0.00,meteobridge,2013-11-01 04:02:00,
2013-10-31 22:07:00,46.0,27.0,30.06,NNW,342,6.9,8.1,47,0.00,,,0.00,meteobridge,2013-11-01 04:07:00,
2013-10-31 22:12:00,45.9,26.8,30.06,NNW,343,2.0,6.0,47,0.00,,,0.00,meteobridge,2013-11-01 04:12:00,
2013-10-31 22:17:00,45.7,27.1,30.07,NNW,333,0.0,0.9,48,0.00,,,0.00,meteobridge,2013-11-01 04:17:00,
2013-10-31 22:22:00,45.3,26.8,30.07,NNW,343,0.0,0.0,48,0.00,,,0.00,meteobridge,2013-11-01 04:22:00,
2013-10-31 22:27:00,45.0,27.0,30.07,NNW,343,0.0,0.0,49,0.00,,,0.00,meteobridge,2013-11-01 04:27:00,
2013-10-31 22:32:00,44.2,26.8,30.07,NNW,343,0.0,0.0,50,0.00,,,0.00,meteobridge,2013-11-01 04:32:00,
2013-10-31 22:37:00,43.5,26.6,30.07,NNW,343,0.0,0.0,51,0.00,,,0.00,meteobridge,2013-11-01 04:37:00,
2013-10-31 22:42:00,43.2,27.1,30.07,NNW,343,0.0,0.0,53,0.00,,,0.00,meteobridge,2013-11-01 04:42:00,
2013-10-31 22:48:00,42.8,26.8,30.08,NNW,343,0.0,0.0,53,0.00,,,0.00,meteobridge,2013-11-01 04:48:00,
2013-10-31 22:53:00,42.4,27.0,30.08,NNW,343,0.0,0.0,54,0.00,,,0.00,meteobridge,2013-11-01 04:53:00,
2013-10-31 22:58:00,42.3,27.3,30.08,North,355,0.0,0.9,55,0.00,,,0.00,meteobridge,2013-11-01 04:58:00,
2013-10-31 23:03:00,41.7,27.1,30.07,North,355,0.0,0.0,56,0.00,,,0.00,meteobridge,2013-11-01 05:03:00,
2013-10-31 23:08:00,41.4,26.8,30.07,North,355,0.0,0.9,56,0.00,,,0.00,meteobridge,2013-11-01 05:08:00,
2013-10-31 23:14:00,41.5,27.0,30.07,NW,308,0.0,0.9,56,0.00,,,0.00,meteobridge,2013-11-01 05:14:00,
2013-10-31 23:19:00,41.7,27.1,30.06,SW,229,0.0,2.9,56,0.00,,,0.00,meteobridge,2013-11-01 05:19:00,
2013-10-31 23:24:00,42.1,27.1,30.07,WNW,298,0.0,0.9,55,0.00,,,0.00,meteobridge,2013-11-01 05:24:00,
2013-10-31 23:29:00,42.3,27.3,30.07,WNW,301,0.9,0.9,55,0.00,,,0.00,meteobridge,2013-11-01 05:29:00,
2013-10-31 23:34:00,42.6,27.1,30.06,NW,320,2.0,2.0,54,0.00,,,0.00,meteobridge,2013-11-01 05:34:00,
2013-10-31 23:39:00,43.3,27.3,30.06,NW,309,0.9,2.9,53,0.00,,,0.00,meteobridge,2013-11-01 05:39:00,
2013-10-31 23:44:00,43.5,27.5,30.06,North,9,4.0,8.1,53,0.00,,,0.00,meteobridge,2013-11-01 05:44:00,
2013-10-31 23:45:00,43.5,27.1,30.06,NNE,13,2.9,8.1,52,0.00,,,0.00,meteobridge,2013-11-01 05:45:00,
2013-10-31 23:50:00,43.5,27.1,30.06,NNW,333,2.0,4.0,52,0.00,,,0.00,meteobridge,2013-11-01 05:50:00,
2013-10-31 23:55:00,43.7,27.1,30.06,NNW,346,2.9,6.0,52,0.00,,,0.00,meteobridge,2013-11-01 05:55:00,